Sugar Grove, IL

5:47 AM CST on February 09, 2016 (GMT -0600)
Aurora Municipal

Weather History for KARR - December, 2011

Change the Weather History Date:

Sunday, December 4, 2011

  Actual Average Record
Temperature  
Mean Temperature 42 °F 29 °F  
Max Temperature 51 °F 37 °F 66 °F (1998)
Min Temperature 34 °F 21 °F 2 °F (2006)
Degree Days  
Heating Degree Days 22 36  
Month to date heating degree days 142  
Since 1 July heating degree days 1556  
Cooling Degree Days 0 0  
Month to date cooling degree days 0  
Year to date cooling degree days 655  
Moisture  
Dew Point 38 °F    
Average Humidity 87    
Maximum Humidity 100    
Minimum Humidity 77    
Precipitation  
Precipitation 0.01 in 0.09 in 1.06 in (1999)
Month to date precipitation 0.37  
Year to date precipitation 35.27  
Sea Level Pressure  
Sea Level Pressure 30.03 in    
Wind  
Wind Speed 15 mph (West)    
Max Wind Speed 23 mph    
Max Gust Speed 33 mph    
Visibility 8 miles    
Events Rain    
T = Trace of Precipitation, MM = Missing Value Source: NWS Daily Summary

Daily Weather History Graph

Daily Weather History Graph

Search for Another Location

Airport or City:

Trip Planner

Search our weather history database for the weather conditions in past years. The results will help you decide how hot, cold, wet, or windy it might be!

Date:

Astronomy

Dec. 04, 2011 Rise Set
Actual Time 7:04 AM CST 4:23 PM CST
Civil Twilight 6:33 AM CST 4:54 PM CST
Nautical Twilight 5:58 AM CST 5:29 PM CST
Astronomical Twilight 5:25 AM CST 6:02 PM CST
Moon 12:57 PM CST (12/4) 1:25 AM CST (12/4)
Length of Visible Light 10h 21m
Length of Day
9h 18m
Waxing Gibbous, 72% of the Moon is Illuminated
Dec 4
Waxing Gibbous
Dec 10
Full
Dec 17
Last Quarter
Dec 24
New
Jan 1
First Quarter

Hourly Weather History & Observations

Time (CST) Temp. Windchill Dew Point Humidity Pressure Visibility Wind Dir Wind Speed Gust Speed Precip Events Conditions
12:29 AM 48.2 °F - 42.8 °F 82% 29.88 in 10.0 mi South 17.3 mph 26.5 mph N/A   Overcast
12:52 AM 48.9 °F - 42.1 °F 77% 29.89 in 10.0 mi South 17.3 mph 25.3 mph N/A   Overcast
1:52 AM 48.0 °F - 43.0 °F 83% 29.88 in 5.0 mi South 15.0 mph 26.5 mph 0.00 in Rain Light Rain
2:52 AM 48.9 °F - 44.1 °F 83% 29.87 in 10.0 mi South 16.1 mph 26.5 mph 0.01 in   Overcast
3:52 AM 50.0 °F - 45.0 °F 83% 29.88 in 10.0 mi SSW 23.0 mph 33.4 mph N/A   Overcast
4:10 AM 50.0 °F - 46.4 °F 87% 29.87 in 10.0 mi South 18.4 mph 25.3 mph N/A   Overcast
4:52 AM 50.0 °F - 46.0 °F 86% 29.88 in 10.0 mi SSW 17.3 mph 24.2 mph N/A   Overcast
5:52 AM 50.0 °F - 46.9 °F 89% 29.88 in 10.0 mi SSW 16.1 mph 25.3 mph N/A   Overcast
6:52 AM 51.1 °F - 46.9 °F 86% 29.91 in 9.0 mi SW 15.0 mph 25.3 mph 0.00 in   Overcast
7:52 AM 48.9 °F - 46.0 °F 90% 29.94 in 10.0 mi SW 10.4 mph - N/A   Overcast
7:59 AM 48.2 °F - 44.6 °F 87% 29.91 in 10.0 mi SW 11.5 mph - N/A   Overcast
8:50 AM 44.6 °F 37.8 °F 42.8 °F 93% 29.97 in 9.0 mi West 15.0 mph 25.3 mph N/A   Overcast
8:52 AM 45.0 °F 37.4 °F 42.1 °F 90% 29.99 in 9.0 mi West 18.4 mph 25.3 mph N/A   Overcast
9:00 AM 44.6 °F 36.6 °F 41.0 °F 87% 30.00 in 7.0 mi West 19.6 mph - N/A   Overcast
9:52 AM 41.0 °F 33.1 °F 39.0 °F 93% 30.03 in 4.0 mi WSW 15.0 mph - N/A   Overcast
10:15 AM 39.2 °F 30.5 °F 39.2 °F 100% 30.02 in 2.5 mi West 16.1 mph - N/A   Overcast
10:52 AM 39.0 °F 30.3 °F 37.9 °F 96% 30.04 in 2.5 mi West 16.1 mph - N/A   Overcast
11:12 AM 39.2 °F 32.0 °F 37.4 °F 93% 30.04 in 6.0 mi WNW 11.5 mph - N/A   Overcast
11:52 AM 37.9 °F 28.9 °F 36.0 °F 93% 30.06 in 6.0 mi West 16.1 mph - N/A   Overcast
12:52 PM 37.9 °F 28.9 °F 35.1 °F 89% 30.07 in 6.0 mi WNW 16.1 mph - N/A   Overcast
1:30 PM 37.4 °F 29.3 °F 33.8 °F 87% 30.06 in 5.0 mi WNW 12.7 mph - N/A   Overcast
1:52 PM 37.9 °F 30.0 °F 33.1 °F 83% 30.09 in 6.0 mi WNW 12.7 mph - N/A   Haze
2:24 PM 37.4 °F 28.5 °F 33.8 °F 87% 30.10 in 5.0 mi WNW 15.0 mph - N/A   Overcast
2:52 PM 37.0 °F 29.3 °F 33.1 °F 86% 30.11 in 5.0 mi WNW 11.5 mph - N/A   Overcast
3:43 PM 35.6 °F 28.0 °F 30.2 °F 81% 30.13 in 7.0 mi WNW 10.4 mph - N/A   Overcast
3:52 PM 36.0 °F 28.5 °F 30.9 °F 82% 30.16 in 7.0 mi WNW 10.4 mph - N/A   Overcast
4:52 PM 36.0 °F 30.3 °F 30.9 °F 82% 30.19 in 9.0 mi WNW 6.9 mph - N/A   Overcast
5:52 PM 36.0 °F 28.0 °F 30.0 °F 79% 30.21 in 10.0 mi NNW 11.5 mph - N/A   Overcast
9:52 PM 34.0 °F 26.6 °F 30.9 °F 89% 30.27 in 10.0 mi WNW 9.2 mph - N/A   Overcast
10:52 PM 34.0 °F 28.0 °F 30.0 °F 85% 30.28 in 10.0 mi WNW 6.9 mph - N/A   Overcast
11:52 PM 34.0 °F 27.2 °F 30.0 °F 85% 30.26 in 10.0 mi NW 8.1 mph - N/A   Overcast